User: anonymous   Login
Location: Albuquerque Trailhead
(34.7934°N, 106.3736°W)
Time: 21:01:04
(UTC+00:00)
Language:

NOAA 19 - Orbit

View from above orbital plane
View from above orbital plane
View from above satellite
View from above satellite

Ground track
Ground track

The orbit data is extracted from the following two-line orbital elements,

1 33591U 09005A   24194.15497896  .00000279  00000-0  17402-3 0  9999
2 33591  99.0457 250.2170 0013231 218.2708 141.7525 14.13045131795157
Epoch (UTC): 12 July 2024 03:43:10
Eccentricity: 0.0013231
inclination: 99.0457°
perigee height: 839 km
apogee height: 858 km
right ascension of ascending node: 250.2170°
argument of perigee: 218.2708°
revolutions per day: 14.13045131
mean anomaly at epoch: 141.7525°
orbit number at epoch: 79515

The dashed part of the orbit path shows where the satellite is in the earth's shadow,  

DLR